• In Uzbekistan
  • List of Countries
  • For 7 days
  • Water Temperature
  • Weather Map
  • Weather Widgets
  • user-avatar
    Login

    Hourly Weather Dahab

    Today, 23 February, Sunday

    Time Temperature Precipitation Wind Pressure Humidity
    00:00 +12°C° 0 mm 2 mps 715 mmHg 58%
    01:00 +10°C° 0 mm 2 mps 714 mmHg 59%
    02:00 +10°C° 0 mm 2 mps 714 mmHg 61%
    03:00 +9°C° 0 mm 2 mps 714 mmHg 62%
    04:00 +9°C° 0 mm 2 mps 714 mmHg 63%
    05:00 +10°C° 0 mm 1 mps 714 mmHg 64%
    06:00 +11°C° 0 mm 1 mps 714 mmHg 58%
    07:00 +13°C° 0 mm 1 mps 714 mmHg 52%
    08:00 +14°C° 0 mm 1 mps 714 mmHg 46%
    09:00 +15°C° 0 mm 2 mps 714 mmHg 43%
    10:00 +17°C° 0 mm 2 mps 715 mmHg 40%
    11:00 +18°C° 0 mm 3 mps 715 mmHg 37%
    12:00 +18°C° 0 mm 3 mps 714 mmHg 38%
    13:00 +18°C° 0 mm 2 mps 713 mmHg 38%
    14:00 +18°C° 0 mm 2 mps 713 mmHg 39%
    15:00 +18°C° 0 mm 2 mps 713 mmHg 41%
    16:00 +17°C° 0 mm 2 mps 713 mmHg 43%
    17:00 +18°C° 0 mm 1 mps 713 mmHg 45%
    18:00 +16°C° 0 mm 1 mps 713 mmHg 48%
    19:00 +15°C° 0 mm 1 mps 713 mmHg 50%
    20:00 +14°C° 0 mm 1 mps 713 mmHg 53%
    21:00 +14°C° 0 mm 1 mps 713 mmHg 54%
    22:00 +14°C° 0 mm 1 mps 713 mmHg 54%
    23:00 +14°C° 0 mm 1 mps 713 mmHg 55%

    Tomorrow, 24 February, Monday

    Time Temperature Precipitation Wind Pressure Humidity
    00:00 +13°C° 0 mm 1 mps 713 mmHg 56%
    01:00 +13°C° 0 mm 1 mps 712 mmHg 57%
    02:00 +13°C° 0 mm 2 mps 712 mmHg 59%
    03:00 +13°C° 0 mm 2 mps 712 mmHg 60%
    04:00 +13°C° 0 mm 2 mps 712 mmHg 61%
    05:00 +12°C° 0 mm 2 mps 712 mmHg 62%
    06:00 +13°C° 0 mm 2 mps 712 mmHg 60%
    07:00 +14°C° 0 mm 2 mps 712 mmHg 58%
    08:00 +14°C° 0 mm 1 mps 712 mmHg 56%
    09:00 +15°C° 0 mm 2 mps 712 mmHg 52%
    10:00 +16°C° 0 mm 3 mps 712 mmHg 48%
    11:00 +17°C° 0 mm 3 mps 712 mmHg 44%
    12:00 +17°C° 0 mm 3 mps 712 mmHg 45%
    13:00 +17°C° 0 mm 3 mps 711 mmHg 45%
    14:00 +17°C° 0 mm 3 mps 710 mmHg 46%
    15:00 +17°C° 0.1 mm 3 mps 710 mmHg 48%
    16:00 +16°C° 0.1 mm 3 mps 710 mmHg 51%
    17:00 +16°C° 0.1 mm 3 mps 710 mmHg 53%
    18:00 +14°C° 0.2 mm 3 mps 710 mmHg 56%
    19:00 +13°C° 0.2 mm 3 mps 711 mmHg 60%
    20:00 +12°C° 0.2 mm 3 mps 711 mmHg 64%
    21:00 +12°C° 0.1 mm 3 mps 711 mmHg 65%
    22:00 +11°C° 0.1 mm 3 mps 711 mmHg 67%
    23:00 +11°C° 0.1 mm 3 mps 711 mmHg 68%

    Day after tomorrow, 25 February, Tuesday

    Time Temperature Precipitation Wind Pressure Humidity
    00:00 +10°C° 0.6 mm 3 mps 711 mmHg 70%
    01:00 +10°C° 0.6 mm 3 mps 711 mmHg 71%
    02:00 +10°C° 0.6 mm 3 mps 710 mmHg 73%
    03:00 +9°C° 0.4 mm 3 mps 710 mmHg 73%
    04:00 +9°C° 0.4 mm 3 mps 710 mmHg 74%
    05:00 +8°C° 0.4 mm 3 mps 710 mmHg 74%
    06:00 +9°C° 0.1 mm 3 mps 711 mmHg 70%
    07:00 +10°C° 0.1 mm 3 mps 711 mmHg 65%
    08:00 +10°C° 0.1 mm 3 mps 711 mmHg 61%
    09:00 +11°C° 0.2 mm 3 mps 712 mmHg 60%
    10:00 +11°C° 0.2 mm 4 mps 712 mmHg 60%
    11:00 +12°C° 0.2 mm 4 mps 712 mmHg 60%
    12:00 +13°C° 0.1 mm 4 mps 712 mmHg 58%
    13:00 +13°C° 0.1 mm 5 mps 712 mmHg 57%
    14:00 +14°C° 0.1 mm 5 mps 712 mmHg 56%
    15:00 +14°C° 0 mm 5 mps 712 mmHg 55%
    16:00 +14°C° 0 mm 6 mps 713 mmHg 54%
    17:00 +14°C° 0 mm 6 mps 713 mmHg 54%
    18:00 +14°C° 0 mm 5 mps 714 mmHg 57%
    19:00 +13°C° 0 mm 4 mps 714 mmHg 61%
    20:00 +12°C° 0 mm 3 mps 714 mmHg 65%
    21:00 +12°C° 0 mm 3 mps 715 mmHg 66%
    22:00 +12°C° 0 mm 2 mps 715 mmHg 68%
    23:00 +12°C° 0 mm 2 mps 715 mmHg 70%

    26 February, Wednesday

    Time Temperature Precipitation Wind Pressure Humidity
    00:00 +12°C° 0 mm 2 mps 715 mmHg 68%
    01:00 +10°C° 0 mm 2 mps 715 mmHg 65%
    02:00 +10°C° 0 mm 2 mps 714 mmHg 63%
    03:00 +10°C° 0 mm 2 mps 714 mmHg 62%
    04:00 +9°C° 0 mm 2 mps 714 mmHg 62%
    05:00 +9°C° 0 mm 2 mps 714 mmHg 61%
    06:00 +10°C° 0 mm 2 mps 715 mmHg 55%
    07:00 +13°C° 0 mm 2 mps 716 mmHg 50%
    08:00 +14°C° 0 mm 2 mps 716 mmHg 45%
    09:00 +15°C° 0 mm 2 mps 716 mmHg 43%
    10:00 +17°C° 0 mm 3 mps 716 mmHg 41%
    11:00 +18°C° 0 mm 3 mps 717 mmHg 39%
    12:00 +18°C° 0 mm 3 mps 716 mmHg 39%
    13:00 +19°C° 0 mm 3 mps 716 mmHg 40%
    14:00 +19°C° 0 mm 3 mps 715 mmHg 41%
    15:00 +19°C° 0 mm 2 mps 715 mmHg 42%
    16:00 +18°C° 0 mm 2 mps 715 mmHg 43%
    17:00 +19°C° 0 mm 1 mps 715 mmHg 45%
    18:00 +18°C° 0 mm 1 mps 715 mmHg 48%
    19:00 +18°C° 0 mm 1 mps 715 mmHg 51%
    20:00 +16°C° 0 mm 1 mps 715 mmHg 54%
    21:00 +15°C° 0 mm 1 mps 716 mmHg 54%
    22:00 +15°C° 0 mm 1 mps 716 mmHg 54%
    23:00 +15°C° 0 mm 1 mps 716 mmHg 54%

    27 February, Thursday

    Time Temperature Precipitation Wind Pressure Humidity
    00:00 +14°C° 0 mm 1 mps 716 mmHg 54%
    01:00 +14°C° 0 mm 1 mps 715 mmHg 53%
    02:00 +13°C° 0 mm 1 mps 715 mmHg 53%
    03:00 +13°C° 0 mm 1 mps 715 mmHg 53%
    04:00 +13°C° 0 mm 1 mps 715 mmHg 53%
    05:00 +12°C° 0 mm 1 mps 715 mmHg 53%
    06:00 +14°C° 0 mm 1 mps 715 mmHg 47%
    07:00 +16°C° 0 mm 2 mps 716 mmHg 40%
    08:00 +18°C° 0 mm 2 mps 716 mmHg 33%
    09:00 +19°C° 0 mm 2 mps 716 mmHg 32%
    10:00 +20°C° 0 mm 2 mps 716 mmHg 30%
    11:00 +21°C° 0 mm 3 mps 716 mmHg 28%
    12:00 +22°C° 0 mm 3 mps 716 mmHg 28%
    13:00 +22°C° 0 mm 3 mps 715 mmHg 28%
    14:00 +22°C° 0 mm 3 mps 714 mmHg 28%
    15:00 +23°C° 0 mm 2 mps 714 mmHg 29%
    16:00 +21°C° 0 mm 2 mps 714 mmHg 31%
    17:00 +22°C° 0 mm 1 mps 714 mmHg 32%
    18:00 +21°C° 0 mm 1 mps 714 mmHg 34%
    19:00 +20°C° 0 mm 1 mps 714 mmHg 36%
    20:00 +19°C° 0 mm 1 mps 714 mmHg 39%
    21:00 +19°C° 0 mm 1 mps 714 mmHg 39%
    22:00 +18°C° 0 mm 1 mps 714 mmHg 38%
    23:00 +17°C° 0 mm 2 mps 714 mmHg 38%

    28 February, Friday

    Time Temperature Precipitation Wind Pressure Humidity
    00:00 +18°C° 0 mm 1 mps 714 mmHg 38%
    01:00 +16°C° 0 mm 1 mps 713 mmHg 38%
    02:00 +16°C° 0 mm 1 mps 713 mmHg 39%
    03:00 +15°C° 0 mm 1 mps 713 mmHg 38%
    04:00 +15°C° 0 mm 1 mps 713 mmHg 38%
    05:00 +15°C° 0 mm 2 mps 713 mmHg 37%
    06:00 +17°C° 0 mm 2 mps 713 mmHg 34%
    07:00 +18°C° 0 mm 2 mps 714 mmHg 30%
    08:00 +20°C° 0 mm 2 mps 714 mmHg 27%
    09:00 +21°C° 0 mm 3 mps 714 mmHg 25%
    10:00 +22°C° 0 mm 3 mps 714 mmHg 24%
    11:00 +23°C° 0 mm 4 mps 714 mmHg 22%
    12:00 +23°C° 0 mm 4 mps 714 mmHg 22%
    13:00 +25°C° 0 mm 5 mps 713 mmHg 22%
    14:00 +24°C° 0 mm 6 mps 713 mmHg 22%
    15:00 +24°C° 0 mm 6 mps 713 mmHg 24%
    16:00 +23°C° 0 mm 6 mps 713 mmHg 25%
    17:00 +22°C° 0 mm 5 mps 713 mmHg 26%
    18:00 +21°C° 0 mm 5 mps 713 mmHg 29%
    19:00 +20°C° 0 mm 5 mps 713 mmHg 32%
    20:00 +18°C° 0 mm 4 mps 714 mmHg 35%
    21:00 +18°C° 0 mm 4 mps 714 mmHg 38%
    22:00 +17°C° 0 mm 4 mps 714 mmHg 41%
    23:00 +16°C° 0 mm 3 mps 714 mmHg 43%
    Show more